Torna al catalogo

STARLINK-2620

AttivoComunicazioniVLEO
NORAD 48453·PAYLOAD·🇺🇸 United States

Lanciato May 9, 2021 da Cape Canaveral Space Force Station

Loading…

Prossimi Passaggi (prossime 24 ore)

TLE

AggiornatoSource: CelesTrak SupGP

Epoca: Sep 14, 2026, 21:43 UTC

1 48453C 21040AB  26257.90534722 -.00003593  00000+0 -11551-3 0  2579
2 48453  53.1608  17.5357 0001169  79.4169  88.2430 15.31711104    10

Traccia STARLINK-2620 in tempo reale con AllMySat

Download on the App Store